Location: Recife
(8.0585°S, 34.8848°W)
Time: 04:55:23
(UTC-03:00)

Courier 1B - Pass Details

Date: 22 April 2026
Orbit: 962 x 1209 km, 28.3° (Epoch: 14 May)

Event Time Altitude Azimuth Distance (km) Brightness Sun altitude
Rises 12:26:08 0° 243° (WSW) 4,094 10.8 63.5°
Reaches altitude 10° 12:29:02 10° 244° (WSW) 3,110 10.4 63.0°
Maximum altitude 12:36:47 79° 330° (NNW) 1,166 9.8 61.7°
Drops below altitude 10° 12:44:05 10° 56° (NE) 2,940 10.1 60.4°
Sets 12:46:45 0° 57° (ENE) 3,858 10.5 60.0°
